Location: Nianha
(10.8000°N, 4.6333°W)
Time: 18:10:41
(UTC+00:00)

Cosmos 1937 Rocket - Pass Details

Date: 14 November 2019
Orbit: 746 x 781 km, 74.0° (Epoch: 19 January)

Event Time Altitude Azimuth Distance (km) Brightness Sun altitude
Rises 05:29:59 0° 216° (SW) 3,212 6.5 -11.1°
Reaches altitude 10° 05:32:41 10° 228° (SW) 2,281 5.7 -10.4°
Maximum altitude 05:37:00 27° 284° (WNW) 1,420 4.3 -9.4°
Drops below altitude 10° 05:41:18 10° 342° (NNW) 2,263 5.6 -8.4°
Sets 05:43:59 0° 354° (N) 3,182 6.5 -7.8°
